Home   Weather   Al Khor   Past weeks

Flag for Qatar Past Weather in Al Khor, Qatar — Yesterday and Last 2 Weeks

Now
77 °F

Sunny.


Feels Like: 78 °F
Forecast: 63 / 71 °F
Wind: 14 mph from Northwest

Location: Doha International Airport

Current Time: Dec 9, 2016 at 12:43:06 pm

Latest Report: Dec 9, 2016 at 12:00 pm


Visibility: 10 mi

Pressure: 30.04 "Hg

Humidity: 42%

Dew Point: 52 °F

Location of Al KhorLocation

Past Weather in Al Khor — Graph

°F

Al Khor Temperature Yesterday

Maximum temperature yesterday: 79 °F (at 2:00 pm)
Minimum temperature yesterday: 66 °F (at 5:00 am)
Average temperature yesterday: 71 °F

High & Low Weather Summary for the Past Weeks

 TemperatureHumidityPressure
High90 °F (Dec 3, 12:00 pm)100% (Dec 3, 3:00 am)30.15 "Hg (Dec 3, 3:00 am)
Low64 °F (Dec 9, 5:00 am)37% (Dec 8, 2:00 pm)29.89 "Hg (Nov 24, 1:00 pm)
Average75 °F72%30.05 "Hg
* Reported Nov 24 11:00 am — Dec 9 11:00 am, Al Khor, Weather by CustomWeather, © 2016

Note: Actual official high and low records may vary slightly from our data, if they occured in-between our weather recording intervals... More about our weather records

Advertising

Al Khor Weather History for the Previous 24 Hours

Scroll right to see more
 ConditionsComfort  
Time TempWeatherWind HumidityBarometerVisibility
11:00 am
Fri, Dec 9
75 °FPassing clouds.12 mph50%30.07 "HgN/A
10:00 am73 °FPassing clouds.12 mph57%30.07 "HgN/A
9:00 am72 °FPassing clouds.9 mph61%30.09 "HgN/A
8:00 am68 °FPassing clouds.7 mph69%30.07 "HgN/A
7:00 am66 °FPassing clouds.7 mph73%30.07 "HgN/A
6:00 am64 °FClear.5 mph78%30.07 "Hg5 mi
5:00 am64 °FClear.5 mph78%30.04 "Hg6 mi
4:00 am66 °FClear.8 mph78%30.04 "Hg10 mi
3:00 am66 °FClear.8 mph78%30.01 "Hg10 mi
2:00 am66 °FClear.8 mph78%30.04 "Hg10 mi
1:00 am68 °FClear.7 mph73%30.04 "Hg10 mi
12:00 am68 °FPassing clouds.7 mph69%30.07 "HgN/A
11:00 pm
Thu, Dec 8
68 °FPassing clouds.7 mph73%30.07 "HgN/A
10:00 pm68 °FPassing clouds.7 mph78%30.07 "HgN/A
9:00 pm70 °FPassing clouds.10 mph73%30.09 "HgN/A
8:00 pm70 °FClear.9 mph73%30.09 "Hg10 mi
7:00 pm70 °FClear.9 mph73%30.07 "Hg10 mi
6:00 pm72 °FClear.10 mph65%30.07 "Hg10 mi
5:00 pm73 °FPassing clouds.12 mph50%30.04 "HgN/A
4:00 pm75 °FPassing clouds.10 mph47%30.04 "HgN/A
3:00 pm77 °FPassing clouds.13 mph42%30.04 "HgN/A
2:00 pm79 °FPassing clouds.12 mph37%30.04 "HgN/A
1:00 pm77 °FPassing clouds.15 mph42%30.07 "HgN/A
12:00 pm77 °FPassing clouds.13 mph42%30.09 "HgN/A
Weather by CustomWeather, © 2016

See weather overviewHow to use our weather pages